Hourly Data Report for February 03, 2019

MIRAMICHI RCS
NEW BRUNSWICK
Current Station Operator: ECCC - MSC

47°00'34.000" N
65°27'54.000" W
33.00 m
8100989
71744
ACQ

Download Data

Hourly Data (February 2019)
Hourly Data Report for February 3, 2019
TIME
LST
Temp Definition
°C
Dew Point Definition
°C
Rel Hum Definition
%
Precip. Amount Definition
mm

Wind Dir Definition
10's deg

Wind Spd Definition
km/h
Visibility Definition
km
Stn Press Definition
kPa
Hmdx Definition


Wind Chill Definition


Weather Definition


00:00 -16.1 -18.3 83 0.0 25 14   100.45   -24 LegendNANA
01:00 -16.5 -19.0 81 0.0 25 11   100.53   -23 LegendNANA
02:00 -16.4 -19.5 77 0.0 25 10   100.57   -23 LegendNANA
03:00 -15.9 -19.4 74 0.0 26 11   100.65   -23 LegendNANA
04:00 -16.4 -20.1 73 0.0 25 12   100.71   -24 LegendNANA
05:00 -16.3 -20.3 71 0.0 27 16   100.83   -25 LegendNANA
06:00 -17.1 -20.7 74 0.0 26 12   100.88   -25 LegendNANA
07:00 -15.6 -20.2 68 0.0 24 17   100.97   -24 LegendNANA
08:00 -16.1 -20.4 70 0.0 25 14   101.08   -24 LegendNANA
09:00 -14.2 -19.6 64 0.0 24 19   101.14   -23 LegendNANA
10:00 -12.6 -18.9 59 0.0 26 21   101.21   -21 LegendNANA
11:00 -10.8 -18.3 54 0.0 26 18   101.28   -18 LegendNANA
12:00 -8.5 -17.6 48 0.0 27 17   101.28   -15 LegendNANA
13:00 -7.0 -17.9 42 0.0 29 21   101.24   -14 LegendNANA
14:00 -6.6 -17.6 42 0.0 31 10   101.28   -11 LegendNANA
15:00 -6.3 -17.3 41 0.0 28 12   101.30   -11 LegendNANA
16:00 -6.3 -17.6 40 0.0 27 12   101.39   -11 LegendNANA
17:00 -7.3 -18.2 41 0.0 30 6   101.44   -10 LegendNANA
18:00 -9.4 -17.9 50 0.0 1 4   101.52   -12 LegendNANA
19:00 -11.7 -17.3 63 0.0 24 5   101.63   -15 LegendNANA
20:00 -12.1 -17.2 66 0.0   0   101.69     LegendNANA
21:00 -12.5 -16.6 72 0.0   0   101.69     LegendNANA
22:00 -12.5 -17.1 69 0.0 9 6   101.68   -16 LegendNANA
23:00 -12.5 -17.3 68 0.0 7 7   101.65   -17 LegendNANA

Notes on Data Quality.

Legend

  • E = Estimated
  • M = Missing
  • NA = Not Available*
  • [empty] = Indicates an unobserved value
Date modified: